Regional Weather Roundup
Issued by NWS

Home | Current Version | Previous Version | Graphics & Text | Print | Product List | Glossary On
Versions: 1 2 3 4 5 6 7 8 9 10 11 12 13 14 15 16 17 18 19 20 21 22 23 24 25 26 27 28 29 30 31 32 33 34 35 36 37 38 39 40 41 42 43 44 45 46 47 48 49 50
000
ASUS43 KIND 232100
RWRIN

WEATHER ROUNDUP FOR INDIANA
NATIONAL WEATHER SERVICE INDIANAPOLIS IN
500 PM EDT SAT SEP 23 2017

NOTE: "FAIR" INDICATES FEW OR NO CLOUDS BELOW 12,000 FEET WITH NO
SIGNIFICANT WEATHER AND/OR OBSTRUCTIONS TO VISIBILITY.

* - STATION DOES NOT REPORT WEATHER SUCH AS PRECIPITATION OR FOG.

+ - STATION NOT QUALITY CONTROLLED BY THE NATIONAL WEATHER SERVICE.
    USE DATA WITH CAUTION...ESPECIALLY DEWPOINT AND RELATIVE
    HUMIDITY OBSERVATIONS.

INZ001>003-010>013-019-020-232200-
NORTHWEST INDIANA

CITY           SKY/WX    TMP DP  RH WIND       PRES   REMARKS
GARY /AIRPORT/ MOSUNNY   90  66  45 E14       30.06F
KNOX *+        SUNNY     90  64  43 E8        30.05F
LA PORTE +     SUNNY     91  64  40 E5        30.07F
MICHIGAN CITY+ SUNNY     86  68  54 NE6       30.07S
MONTICELLO +   SUNNY     91  63  38 E5        30.04F
RENSSELAER +   SUNNY     91  45  19 CALM      30.05F

$$

LMZ046-743>745-232200-
SOUTHERN LAKE MICHIGAN

STATION/POSITION TIME  TEMP    WIND        PRES    WAVE
                       AIR SEA DIR/SP/G            HT
                 (UTC) (F)     (DEG/KT/KT) (MB)    (FT)
BURNS HARBOR     2040   80      70/  8/  9 1017.9F
MICHIGAN CITY    2010   78      30/  8/  8   N/A
5NW MICH CITY    2050   77 74   70/  6/  8   N/A     1

$$

INZ004-005-014>016-021>024-232200-
NORTH CENTRAL INDIANA

CITY           SKY/WX    TMP DP  RH WIND       PRES   REMARKS
ELKHART        SUNNY     90  64  43 E5        30.07F
GOSHEN         SUNNY     91  62  37 SE9       30.07F
SOUTH BEND     SUNNY     91  63  39 E8        30.07F
WARSAW +       SUNNY     88  68  51 E6        30.08F

$$

INZ006>009-017-018-025>027-232200-
NORTHEAST INDIANA

CITY           SKY/WX    TMP DP  RH WIND       PRES   REMARKS
AUBURN +       SUNNY     90  63  40 E8        30.10S
FORT WAYNE     SUNNY     89  65  44 NE8       30.08F
KENDALLVILLE + SUNNY     88  66  47 SE6       30.10F

$$

INZ028-029-035-036-043>045-051>053-232200-
WEST CENTRAL INDIANA

CITY           SKY/WX    TMP DP  RH WIND       PRES   REMARKS
GREENCASTLE +  SUNNY     91  59  33 E7        30.06S
LAFAYETTE      SUNNY     89  67  47 E6        30.03F
TERRE HAUTE    SUNNY     92  59  33 E10       30.03F

$$

INZ030>032-037>040-046>048-054>057-064-065-232200-
CENTRAL INDIANA

CITY           SKY/WX    TMP DP  RH WIND       PRES   REMARKS
INDIANAPOLIS   MOSUNNY   91  64  40 E7        30.06F
-EAGLE CREEK   SUNNY     91  62  37 E8        30.05F
KOKOMO +       SUNNY     89  65  44 E7        30.07F
MT COMFORT *+  SUNNY     90  64  43 S3        30.07F
SHELBYVILLE    SUNNY     92  61  35 SE7       30.05F

$$

INZ033-034-041-042-049-050-058-059-232200-
EAST CENTRAL INDIANA

CITY           SKY/WX    TMP DP  RH WIND       PRES   REMARKS
MUNCIE         SUNNY     92  63  38 NE7       30.07F
RICHMOND +     SUNNY     88  61  40 E7        30.10F

$$

INZ060-061-067>069-081>083-085>088-232200-
SOUTHWEST INDIANA

CITY           SKY/WX    TMP DP  RH WIND       PRES   REMARKS
EVANSVILLE     SUNNY     87  61  41 E6        30.03F
HUNTINGBURG +  SUNNY     87  66  49 E7        30.04F

$$

INZ062-063-066-070>080-084-089>092-232200-
SOUTH CENTRAL AND SOUTHEAST INDIANA

CITY           SKY/WX    TMP DP  RH WIND       PRES   REMARKS
BLOOMINGTON    SUNNY     91  59  33 SE9       30.05F
MADISON *+     SUNNY     88  61  40 E5        30.08F
SEYMOUR +      SUNNY     91  61  35 E6        30.05F

$$





USA.gov is the U.S. government's official web portal to all federal, state and local government web resources and services.